N1IJV-10 Weather Reports


time (UTC)temp
C
wind
direction
speed
KPH
gust
KPH
rain 1hr
cm
rain 24hr
cm
rain mn
cm
humidity
%
barometer
mb
20260904234944 31 191 4.8 4.8 0.00 0.00 0.00 74 1009.3
20260904234443 31 191 3.2 4.8 0.00 0.00 0.00 74 1009.2
20260904233940 31 271 3.2 4.8 0.00 0.00 0.00 74 1009.0
20260904233435 31 167 3.2 4.8 0.00 0.00 0.00 74 1009.1
20260904232931 31 154 1.6 4.8 0.00 0.00 0.00 74 1009.1
20260904232427 31 205 4.8 4.8 0.00 0.00 0.00 74 1009.0
20260904231924 31 119 1.6 3.2 0.00 0.00 0.00 74 1009.2
20260904231424 31 142 1.6 3.2 0.00 0.00 0.00 73 1009.4
20260904230919 31 166 1.6 1.6 0.00 0.00 0.00 74 1009.3
20260904230418 32 145 1.6 4.8 0.00 0.00 0.00 72 1009.4
20260904225913 32 159 4.8 8.0 0.00 0.00 0.00 71 1009.5
20260904225411 32 176 3.2 8.0 0.00 0.00 0.00 72 1009.4
20260904224905 32 306 1.6 3.2 0.00 0.00 0.00 72 1009.2
20260904224401 32 156 1.6 3.2 0.00 0.00 0.00 72 1009.3
20260904223855 32 150 1.6 8.0 0.00 0.00 0.00 71 1009.3
20260904223354 32 159 3.2 8.0 0.00 0.00 0.00 69 1009.5
20260904222850 33 141 8.0 11.3 0.00 0.00 0.00 68 1009.5
20260904222345 33 162 3.2 4.8 0.00 0.00 0.00 68 1009.3
20260904221845 33 297 4.8 9.7 0.00 0.00 0.00 67 1009.3
20260904221340 34 102 0.0 4.8 0.00 0.00 0.00 66 1009.3
20260904220835 33 121 3.2 8.0 0.00 0.00 0.00 66 1009.3
20260904220334 34 158 3.2 3.2 0.00 0.00 0.00 64 1009.5
20260904215830 33 119 1.6 3.2 0.00 0.00 0.00 66 1009.4
20260904215325 33 137 3.2 4.8 0.00 0.00 0.00 65 1009.3
20260904214821 33 137 3.2 12.9 0.00 0.00 0.00 64 1009.4
20260904214316 34 143 3.2 4.8 0.00 0.00 0.00 63 1009.1
20260904213814 34 136 1.6 3.2 0.00 0.00 0.00 65 1009.3
20260904213309 33 138 3.2 8.0 0.00 0.00 0.00 64 1009.2
20260904212806 34 136 4.8 11.3 0.00 0.00 0.00 65 1009.3
20260904212306 33 134 3.2 8.0 0.00 0.00 0.00 65 1009.1
20260904211801 33 140 3.2 9.7 0.00 0.00 0.00 63 1009.1
20260904211255 34 138 3.2 3.2 0.00 0.00 0.00 62 1009.1
20260904210751 33 138 3.2 8.0 0.00 0.00 0.00 62 1009.1
20260904210245 33 141 1.6 9.7 0.00 0.00 0.00 64 1009.3
20260904205741 33 141 3.2 8.0 0.00 0.00 0.00 63 1009.2
20260904205237 33 152 4.8 8.0 0.00 0.00 0.00 64 1009.1
20260904204734 33 143 1.6 11.3 0.00 0.00 0.00 64 1009.4
20260904204229 34 131 3.2 8.0 0.00 0.00 0.00 63 1009.5
20260904203725 33 138 1.6 8.0 0.00 0.00 0.00 63 1009.7
20260904203221 34 137 3.2 8.0 0.00 0.00 0.00 63 1009.5
20260904202717 33 138 1.6 4.8 0.00 0.00 0.00 62 1009.9
20260904202213 33 138 4.8 9.7 0.00 0.00 0.00 64 1009.8
20260904201708 33 154 4.8 8.0 0.00 0.00 0.00 62 1009.8
20260904201208 34 151 6.4 9.7 0.00 0.00 0.00 62 1010.0
20260904200703 34 138 1.6 4.8 0.00 0.00 0.00 61 1010.2
20260904200157 34 145 1.6 4.8 0.00 0.00 0.00 61 1010.0
20260904195656 33 135 4.8 8.0 0.00 0.00 0.00 61 1010.1
20260904195150 33 138 1.6 4.8 0.00 0.00 0.00 63 1010.3
20260904194644 33 137 9.7 14.5 0.00 0.00 0.00 63 1010.3
20260904194138 33 143 3.2 9.7 0.00 0.00 0.00 63 1010.4
20260904193633 33 141 3.2 4.8 0.00 0.00 0.00 61 1010.5
20260904193129 33 136 3.2 4.8 0.00 0.00 0.00 62 1010.8
20260904192629 33 138 1.6 4.8 0.00 0.00 0.00 63 1010.5
20260904192125 33 138 3.2 8.0 0.00 0.00 0.00 63 1010.9
20260904191622 32 126 4.8 8.0 0.00 0.00 0.00 65 1010.5
20260904191118 32 146 4.8 9.7 0.00 0.00 0.00 64 1010.6
20260904190613 32 138 3.2 4.8 0.00 0.00 0.00 65 1010.8
20260904190109 32 139 0.0 8.0 0.00 0.00 0.00 66 1010.8
20260904185606 32 138 1.6 9.7 0.00 0.00 0.00 65 1011.0
20260904185100 31 147 3.2 11.3 0.00 0.00 0.00 66 1011.0
20260904184559 31 138 3.2 9.7 0.00 0.00 0.00 66 1011.1
20260904184055 31 134 4.8 11.3 0.00 0.00 0.00 65 1011.2
20260904183550 31 138 1.6 3.2 0.00 0.00 0.00 67 1011.3
20260904183045 30 137 3.2 8.0 0.00 0.00 0.00 67 1011.2
20260904182540 31 138 3.2 4.8 0.00 0.00 0.00 66 1011.4
20260904182035 31 136 3.2 4.8 0.00 0.00 0.00 65 1011.4
20260904181531 31 135 3.2 9.7 0.00 0.00 0.00 64 1011.4
20260904181030 31 140 1.6 11.3 0.00 0.00 0.00 66 1011.6
20260904180525 30 147 3.2 4.8 0.00 0.00 0.00 67 1011.8
20260904180021 30 135 4.8 11.3 0.00 0.00 0.00 69 1011.7
20260904175520 30 136 3.2 4.8 0.00 0.00 0.00 68 1011.8
20260904175018 30 137 4.8 9.7 0.00 0.00 0.00 69 1012.1
20260904174514 30 131 3.2 9.7 0.00 0.00 0.00 69 1012.4
20260904174011 29 132 6.4 12.9 0.00 0.00 0.00 70 1012.6
20260904173505 29 129 1.6 9.7 0.00 0.00 0.00 71 1012.7
20260904173000 28 134 1.6 9.7 0.00 0.00 0.00 70 1012.7
20260904172456 28 135 4.8 14.5 0.00 0.00 0.00 71 1012.8
20260904171950 28 130 8.0 9.7 0.00 0.00 0.00 71 1013.1
20260904171445 28 134 4.8 4.8 0.00 0.00 0.00 71 1013.3
20260904170941 28 141 8.0 11.3 0.00 0.00 0.00 70 1013.4
20260904170441 28 138 3.2 8.0 0.00 0.00 0.00 71 1013.4
20260904165937 28 135 9.7 12.9 0.00 0.00 0.00 72 1013.4
20260904165436 28 136 8.0 16.1 0.00 0.00 0.00 73 1013.4
20260904164935 28 136 6.4 14.5 0.00 0.00 0.00 73 1013.4
20260904164430 28 133 3.2 11.3 0.00 0.00 0.00 74 1013.2
20260904163926 28 121 6.4 12.9 0.00 0.00 0.00 75 1013.3
20260904163426 28 131 4.8 11.3 0.00 0.00 0.00 75 1013.5
20260904162920 28 125 4.8 12.9 0.00 0.00 0.00 76 1013.7
20260904162415 28 137 4.8 11.3 0.00 0.00 0.00 75 1013.6
20260904161911 28 135 4.8 9.7 0.00 0.00 0.00 76 1013.4
20260904161406 28 131 1.6 9.7 0.00 0.00 0.00 77 1013.3
20260904160902 29 133 4.8 14.5 0.00 0.00 0.00 76 1013.0
20260904160357 28 137 4.8 12.9 0.00 0.00 0.00 77 1013.0
20260904155852 28 138 8.0 20.9 0.00 0.00 0.00 78 1013.0
20260904155346 28 140 3.2 4.8 0.00 0.00 0.00 82 1012.8
20260904154845 28 140 3.2 8.0 0.00 0.00 0.00 81 1013.0
20260904154339 29 139 1.6 9.7 0.00 0.00 0.00 79 1012.9
20260904153835 30 139 3.2 8.0 0.00 0.00 0.00 77 1012.6
20260904153330 29 144 1.6 9.7 0.00 0.00 0.00 77 1012.3
20260904152827 29 136 4.8 12.9 0.00 0.00 0.00 77 1012.2
20260904152321 29 139 4.8 12.9 0.00 0.00 0.00 77 1012.3
20260904151816 30 143 4.8 16.1 0.00 0.00 0.00 77 1012.2
20260904151315 30 140 6.4 9.7 0.00 0.00 0.00 76 1012.3
20260904150811 29 138 1.6 4.8 0.00 0.00 0.00 77 1012.3
20260904150306 29 140 1.6 4.8 0.00 0.00 0.00 79 1012.1
20260904145804 28 138 3.2 8.0 0.00 0.00 0.00 79 1011.9
20260904145300 28 142 8.0 9.7 0.00 0.00 0.00 80 1011.7
20260904144755 28 138 4.8 9.7 0.00 0.00 0.00 80 1011.8
20260904144251 28 142 1.6 9.7 0.00 0.00 0.00 81 1011.9
20260904143747 28 139 4.8 4.8 0.00 0.00 0.00 80 1011.7
20260904143243 29 139 3.2 4.8 0.00 0.00 0.00 79 1011.6
20260904142739 29 138 4.8 12.9 0.00 0.00 0.00 78 1011.5
20260904142235 29 138 1.6 4.8 0.00 0.00 0.00 75 1011.4
20260904141735 28 139 0.0 1.6 0.00 0.00 0.00 76 1011.7
20260904141230 28 139 1.6 1.6 0.00 0.00 0.00 77 1011.9
20260904140726 29 139 1.6 4.8 0.00 0.00 0.00 77 1011.7
20260904140221 28 140 0.0 3.2 0.00 0.00 0.00 75 1011.7
20260904135719 28 137 0.0 0.0 0.00 0.00 0.00 79 1011.7
20260904135215 28 139 1.6 3.2 0.00 0.00 0.00 80 1011.4
20260904134711 27 138 0.0 0.0 0.00 0.00 0.00 81 1011.5
20260904134210 27 138 0.0 1.6 0.00 0.00 0.00 80 1011.4
20260904133705 27 138 0.0 0.0 0.00 0.00 0.00 81 1011.4
20260904133202 27 138 0.0 1.6 0.00 0.00 0.00 82 1011.4
20260904132701 27 139 1.6 3.2 0.00 0.00 0.00 82 1011.3
20260904132156 27 138 0.0 1.6 0.00 0.00 0.00 83 1011.4
20260904131655 27 138 0.0 0.0 0.00 0.00 0.00 83 1011.4
20260904131151 26 138 0.0 1.6 0.00 0.00 0.00 84 1011.4
20260904130645 26 139 1.6 3.2 0.00 0.00 0.00 84 1011.2
20260904130145 26 138 1.6 3.2 0.00 0.00 0.00 85 1011.1
20260904125641 26 138 0.0 1.6 0.00 0.00 0.00 85 1011.3
20260904125136 25 138 0.0 0.0 0.00 0.00 0.00 87 1010.9
20260904124631 25 138 0.0 1.6 0.00 0.00 0.00 87 1010.8
20260904124127 25 139 0.0 0.0 0.00 0.00 0.00 90 1010.8
20260904123627 25 137 0.0 0.0 0.00 0.00 0.00 90 1010.5
20260904123123 24 138 0.0 0.0 0.00 0.00 0.00 90 1010.6
20260904122617 24 137 0.0 0.0 0.00 0.00 0.00 91 1010.2
20260904122112 24 137 0.0 0.0 0.00 0.00 0.00 91 1010.1
20260904121608 24 138 0.0 0.0 0.00 0.00 0.00 91 1010.1
20260904121103 24 138 0.0 0.0 0.00 0.00 0.00 91 1010.1
20260904120559 24 137 0.0 0.0 0.00 0.00 0.00 90 1010.0
20260904120055 24 137 0.0 0.0 0.00 0.00 0.00 90 1009.8
20260904115550 24 136 0.0 0.0 0.00 0.00 0.00 89 1009.9
20260904115044 24 136 0.0 0.0 0.00 0.00 0.00 89 1010.0
20260904114539 25 135 0.0 1.6 0.00 0.00 0.00 88 1009.8
20260904114039 25 135 0.0 1.6 0.00 0.00 0.00 88 1009.8
20260904113533 25 135 0.0 1.6 0.00 0.00 0.00 88 1009.9
20260904113033 24 135 1.6 3.2 0.00 0.00 0.00 88 1009.7
20260904112528 24 136 0.0 1.6 0.00 0.00 0.00 89 1009.6
20260904112024 25 136 0.0 0.0 0.00 0.00 0.00 88 1009.6
20260904111519 25 136 1.6 3.2 0.00 0.00 0.00 88 1009.5
20260904111015 25 135 0.0 0.0 0.00 0.00 0.00 87 1009.7
20260904110509 25 133 1.6 3.2 0.00 0.00 0.00 87 1009.3
20260904110004 25 135 1.6 1.6 0.00 0.00 0.00 86 1009.4
20260904105458 25 131 3.2 3.2 0.00 0.00 0.00 86 1009.4
20260904104953 25 135 1.6 4.8 0.00 0.00 0.00 86 1009.2
20260904104448 25 134 4.8 4.8 0.00 0.00 0.00 86 1009.3
20260904103945 25 134 1.6 4.8 0.00 0.00 0.00 85 1009.2
20260904103440 25 135 4.8 8.0 0.00 0.00 0.00 85 1009.2
20260904102936 25 132 4.8 8.0 0.00 0.00 0.00 86 1009.3
20260904102432 25 132 3.2 4.8 0.00 0.00 0.00 86 1009.4
20260904101927 25 134 4.8 4.8 0.00 0.00 0.00 86 1009.1
20260904101424 25 140 3.2 8.0 0.00 0.00 0.00 86 1009.3
20260904100919 25 140 6.4 8.0 0.00 0.00 0.00 87 1009.2
20260904100414 25 140 6.4 8.0 0.00 0.00 0.00 88 1009.4
20260904095909 25 142 4.8 9.7 0.00 0.00 0.00 88 1009.3
20260904095404 25 144 3.2 8.0 0.00 0.00 0.00 89 1009.1
20260904094859 25 134 3.2 8.0 0.00 0.00 0.00 90 1009.4
20260904094354 25 138 4.8 4.8 0.00 0.00 0.00 91 1009.3
20260904093850 25 134 1.6 1.6 0.00 0.00 0.00 92 1009.5
20260904093350 24 135 0.0 1.6 0.00 0.00 0.00 94 1009.6
20260904092845 24 135 0.0 1.6 0.00 0.00 0.00 95 1009.7
20260904092342 24 136 0.0 0.0 0.00 0.00 0.00 95 1010.2
20260904091838 24 135 0.0 0.0 0.00 0.00 0.00 95 1010.0
20260904091333 24 135 0.0 0.0 0.00 0.00 0.00 95 1010.0
20260904090827 24 135 0.0 0.0 0.00 0.00 0.00 95 1010.1
20260904090324 25 136 0.0 0.0 0.00 0.00 0.00 94 1010.0
20260904085819 25 136 0.0 0.0 0.00 0.00 0.00 94 1010.2
20260904085314 25 137 0.0 0.0 0.00 0.00 0.00 93 1010.4
20260904084809 25 136 0.0 0.0 0.00 0.00 0.00 93 1010.1
20260904084304 25 136 0.0 1.6 0.00 0.00 0.00 94 1010.2
20260904083801 25 136 0.0 1.6 0.00 0.00 0.00 94 1010.1
20260904083257 25 137 0.0 0.0 0.00 0.00 0.00 94 1010.1
20260904082757 25 138 0.0 0.0 0.00 0.00 0.00 94 1010.0
20260904082252 25 137 0.0 0.0 0.00 0.00 0.00 94 1010.0
20260904081747 25 136 0.0 1.6 0.00 0.00 0.00 93 1010.1
20260904081243 25 136 0.0 1.6 0.00 0.00 0.00 93 1009.8
20260904080738 25 137 0.0 0.0 0.00 0.00 0.00 92 1009.7
20260904080234 25 139 0.0 1.6 0.00 0.00 0.00 91 1009.8
20260904075730 25 136 0.0 1.6 0.00 0.00 0.00 91 1009.7
20260904075225 26 134 1.6 3.2 0.00 0.00 0.00 91 1009.7
20260904074724 25 135 1.6 3.2 0.00 0.00 0.00 91 1009.5
20260904074218 25 136 1.6 1.6 0.00 0.00 0.00 91 1009.3
20260904073714 25 136 1.6 1.6 0.00 0.00 0.00 92 1009.3
20260904073210 25 136 1.6 3.2 0.00 0.00 0.00 92 1009.4
20260904072706 25 138 0.0 3.2 0.00 0.00 0.00 93 1009.4
20260904072200 25 135 0.0 1.6 0.00 0.00 0.00 94 1009.4
20260904071656 25 137 0.0 1.6 0.00 0.00 0.00 95 1009.3
20260904071151 25 136 0.0 0.0 0.00 0.00 0.00 97 1009.2
20260904070650 25 137 0.0 0.0 0.00 0.00 0.00 98 1009.5
20260904070149 24 136 0.0 0.0 0.00 0.00 0.00 98 1009.6
20260904065644 24 138 0.0 0.0 0.00 0.00 0.00 98 1009.6
20260904065142 24 136 0.0 0.0 0.00 0.00 0.00 98 1009.6
20260904064637 24 136 0.0 0.0 0.00 0.00 0.00 98 1009.7
20260904064136 25 137 0.0 0.0 0.00 0.00 0.00 98 1010.1
20260904063632 25 137 0.0 0.0 0.00 0.00 0.00 97 1010.0
20260904063128 25 137 0.0 0.0 0.00 0.00 0.00 97 1010.3
20260904062624 25 137 0.0 0.0 0.00 0.00 0.00 97 1010.6
20260904062120 25 138 0.0 0.0 0.00 0.00 0.00 97 1010.5
20260904061615 25 136 0.0 0.0 0.00 0.00 0.00 96 1010.4
20260904061112 25 136 0.0 0.0 0.00 0.00 0.00 96 1010.6
20260904060608 25 136 0.0 0.0 0.00 0.00 0.00 96 1010.6
20260904060104 25 136 0.0 0.0 0.00 0.00 0.00 96 1010.7
20260904055558 25 136 0.0 0.0 0.00 0.00 0.00 95 1010.6
20260904055053 25 138 0.0 0.0 0.00 0.00 0.00 95 1010.8
20260904054549 25 137 0.0 0.0 0.00 0.00 0.00 95 1010.8
20260904054045 25 136 0.0 0.0 0.00 0.00 0.00 95 1010.4
20260904053544 25 137 0.0 0.0 0.00 0.00 0.00 94 1010.5
20260904053040 25 136 0.0 0.0 0.00 0.00 0.00 94 1010.9
20260904052536 26 135 0.0 0.0 0.00 0.00 0.00 93 1010.8
20260904052032 26 135 0.0 0.0 0.00 0.00 0.00 92 1010.6
20260904051528 26 136 0.0 0.0 0.00 0.00 0.00 91 1010.7
20260904051027 26 136 0.0 0.0 0.00 0.00 0.00 89 1010.7
20260904050524 27 136 0.0 0.0 0.00 0.00 0.00 89 1010.6
20260904050019 27 138 0.0 1.6 0.00 0.00 0.00 89 1010.4
20260904045514 27 137 0.0 1.6 0.00 0.00 0.00 89 1010.3
20260904045009 27 135 0.0 0.0 0.00 0.00 0.00 89 1010.4
20260904044505 27 135 0.0 1.6 0.00 0.00 0.00 89 1010.4
20260904044001 27 135 0.0 0.0 0.00 0.00 0.00 89 1010.5
20260904043457 27 136 0.0 1.6 0.00 0.00 0.00 89 1010.1
20260904042952 27 135 0.0 0.0 0.00 0.00 0.00 90 1010.6
20260904042449 27 136 0.0 0.0 0.00 0.00 0.00 91 1010.6
20260904041943 27 137 0.0 0.0 0.00 0.00 0.00 91 1010.5
20260904041440 27 137 0.0 0.0 0.00 0.00 0.00 91 1010.4
20260904040936 27 137 0.0 0.0 0.00 0.00 0.00 91 1010.5
20260904040435 27 137 0.0 0.0 0.00 0.00 0.00 90 1010.6
20260904035932 27 137 0.0 0.0 0.00 0.00 0.00 91 1010.5
20260904035427 27 138 0.0 0.0 0.00 0.00 0.00 90 1010.5
20260904034926 27 138 0.0 0.0 0.00 0.00 0.00 90 1010.7
20260904034422 27 138 0.0 0.0 0.00 0.00 0.00 90 1010.4
20260904033917 27 136 0.0 1.6 0.00 0.00 0.00 90 1010.6
20260904033414 27 137 0.0 1.6 0.00 0.00 0.00 90 1010.4
20260904032910 27 136 1.6 1.6 0.00 0.00 0.00 90 1010.6
20260904032404 27 137 0.0 1.6 0.00 0.00 0.00 90 1010.6
20260904031858 27 137 0.0 1.6 0.00 0.00 0.00 90 1010.5
20260904031354 26 137 0.0 1.6 0.00 0.00 0.00 91 1010.6
20260904030850 26 137 0.0 0.0 0.00 0.00 0.00 91 1010.6
20260904030345 26 138 0.0 0.0 0.00 0.00 0.00 92 1010.8
20260904025841 26 136 0.0 0.0 0.00 0.00 0.00 92 1010.7
20260904025337 26 138 0.0 0.0 0.00 0.00 0.00 92 1010.9
20260904024836 25 137 0.0 0.0 0.00 0.00 0.00 92 1010.7
20260904024331 26 136 0.0 0.0 0.00 0.00 0.00 91 1010.6
20260904023828 26 135 1.6 1.6 0.00 0.00 0.00 90 1010.8
20260904023324 26 136 0.0 0.0 0.00 0.00 0.00 89 1010.7
20260904022823 26 136 0.0 0.0 0.00 0.00 0.00 89 1010.7
20260904022320 26 136 1.6 1.6 0.00 0.00 0.00 88 1010.6
20260904021817 27 135 0.0 1.6 0.00 0.00 0.00 86 1010.4
20260904021316 27 136 0.0 0.0 0.00 0.00 0.00 84 1010.5
20260904020812 27 136 0.0 0.0 0.00 0.00 0.00 83 1010.7
20260904020307 27 136 0.0 0.0 0.00 0.00 0.00 83 1010.7
20260904015805 27 136 1.6 1.6 0.00 0.00 0.00 82 1010.5
20260904015301 27 137 0.0 1.6 0.00 0.00 0.00 82 1010.6
20260904014759 28 137 0.0 1.6 0.00 0.00 0.00 82 1010.3
20260904014254 28 137 0.0 1.6 0.00 0.00 0.00 82 1010.3
20260904013750 28 137 1.6 1.6 0.00 0.00 0.00 81 1010.3
20260904013246 28 137 0.0 1.6 0.00 0.00 0.00 81 1010.2
20260904012742 28 137 0.0 1.6 0.00 0.00 0.00 81 1010.2
20260904012241 28 140 0.0 1.6 0.00 0.00 0.00 81 1010.0
20260904011741 28 150 0.0 1.6 0.00 0.00 0.00 81 1010.0
20260904011236 28 150 0.0 0.0 0.00 0.00 0.00 81 1009.6
20260904010731 28 149 0.0 0.0 0.00 0.00 0.00 81 1009.8
20260904010228 28 148 0.0 0.0 0.00 0.00 0.00 80 1009.2
20260904005727 29 146 0.0 0.0 0.00 0.00 0.00 79 1009.1
20260904005223 30 144 0.0 0.0 0.00 0.00 0.00 77 1009.2
20260904004718 30 145 0.0 0.0 0.00 0.00 0.00 74 1009.3
20260904004214 30 143 0.0 0.0 0.00 0.00 0.00 74 1008.9
20260904003708 30 143 0.0 1.6 0.00 0.00 0.00 74 1008.7
20260904003205 30 143 0.0 0.0 0.00 0.00 0.00 74 1008.9
20260904002700 30 143 0.0 0.0 0.00 0.00 0.00 74 1008.9
20260904002156 30 143 0.0 1.6 0.00 0.00 0.00 73 1008.9
20260904001651 30 143 0.0 1.6 0.00 0.00 0.00 73 1009.0
20260904001150 31 143 0.0 3.2 0.00 0.00 0.00 72 1008.9
20260904000645 31 143 0.0 1.6 0.00 0.00 0.00 71 1008.9
20260904000140 31 143 0.0 1.6 0.00 0.00 0.00 71 1009.0
20260903235640 31 142 0.0 3.2 0.00 0.00 0.00 71 1009.0
20260903235136 31 143 0.0 3.2 0.00 0.00 0.00 71 1009.0